This demonstration page uses our WeatherBlox Daily Observations layout. Learn more.

Left ArrowRight Arrow

Hourly Observations for August 3, 2021

Temp ( °F °C ) Dew Point ( °F °C ) Humidity (%) Winds ( mph kmh ) Pressure ( in mb ) Visibility ( mi km ) Precip ( " mm )
12:15 am 00:15 Partly Cloudy 67 19.7 56 13.6 68 68 SSE 7 11 30.06 1018 7 11 N/A
12:35 am 00:35 Partly Cloudy 67 19.4 56 13.5 69 69 SSE 7 11 30.07 1018 10 16 N/A
12:55 am 00:55 Partly Cloudy 67 19.6 56 13.3 67 67 SSE 9 15 30.07 1018 10 16 N/A
1:15 am 01:15 Mostly Cloudy 67 19.4 56 13.2 68 68 SSE 9 15 30.07 1018 10 16 N/A
1:35 am 01:35 Mostly Cloudy 65 18.6 56 13.3 71 71 SSE 7 11 30.07 1018 10 16 N/A
1:55 am 01:55 Partly Cloudy 64 18 56 13.3 74 74 SSE 7 11 30.07 1018 10 16 N/A
2:15 am 02:15 Clear 64 18 56 13.2 74 74 SSE 7 11 30.06 1018 10 16 N/A
2:35 am 02:35 Mostly Cloudy 64 18 56 13.1 73 73 SSE 8 13 30.06 1018 10 16 N/A
2:55 am 02:55 Mostly Cloudy 64 17.9 55 13 73 73 SSE 7 11 30.06 1018 10 16 N/A
3:15 am 03:15 Partly Cloudy 63 17.1 55 12.8 76 76 SSE 6 9 30.07 1018 10 16 N/A
3:35 am 03:35 Mostly Cloudy 63 17.3 55 12.6 74 74 SSE 6 9 30.07 1018 10 16 N/A
3:55 am 03:55 Partly Cloudy 61 16.2 55 12.8 80 80 SSE 3 6 30.07 1018 10 16 N/A
4:15 am 04:15 Partly Cloudy 61 16 55 13 83 83 SSE 5 7 30.08 1019 10 16 N/A
4:35 am 04:35 Partly Cloudy 61 16 55 12.8 81 81 SSE 6 9 30.08 1019 10 16 N/A
4:55 am 04:55 Partly Cloudy 60 15.8 55 13 84 84 SE 6 9 30.08 1019 10 16 N/A
5:15 am 05:15 Clear 61 16.1 55 12.8 81 81 SSE 7 11 30.08 1018 10 16 N/A
5:35 am 05:35 Clear 62 16.5 55 12.8 79 79 SE 7 11 30.06 1018 10 16 N/A
5:55 am 05:55 Clear 62 16.5 55 12.6 78 78 SE 6 9 30.06 1018 10 16 N/A
6:15 am 06:15 Clear 62 16.5 55 12.6 78 78 SE 6 9 30.05 1018 10 16 N/A
6:35 am 06:35 Clear 61 16.1 55 12.5 79 79 SE 6 9 30.07 1018 10 16 N/A
6:55 am 06:55 Sunny 61 16.1 55 12.5 79 79 SE 7 11 30.07 1018 10 16 N/A
7:15 am 07:15 Sunny 61 16.1 55 12.5 79 79 SE 7 11 30.07 1018 10 16 N/A
7:35 am 07:35 Sunny 62 16.5 55 12.6 78 78 SSE 8 13 30.06 1018 10 16 N/A
7:55 am 07:55 Sunny 63 17.1 55 12.7 75 75 SSE 9 15 30.06 1018 10 16 N/A
8:15 am 08:15 Sunny 64 17.7 55 12.8 73 73 SSE 8 13 30.05 1018 10 16 N/A
8:35 am 08:35 Sunny 65 18.4 55 12.7 70 70 SSE 9 15 30.05 1017 10 16 N/A
8:55 am 08:55 Sunny 67 19.2 56 13.1 68 68 SSE 10 17 30.04 1017 10 16 N/A
9:15 am 09:15 Sunny 68 20 56 13.2 65 65 SSE 9 15 30.03 1017 10 16 N/A
9:35 am 09:35 Sunny 69 20.6 56 13.5 64 64 SSE 10 17 30.03 1017 10 16 N/A
9:55 am 09:55 Sunny 71 21.5 57 13.9 62 62 SSE 9 15 30.01 1016 7 11 N/A
10:15 am 10:15 Sunny 72 22.4 57 13.9 59 59 SSE 12 19 30.00 1016 10 16 N/A
10:35 am 10:35 Sunny 74 23.2 57 14.1 57 57 S 12 19 29.99 1016 10 16 N/A
10:55 am 10:55 Sunny 75 24 57 13.9 53 53 SSE 12 19 29.99 1015 10 16 N/A
11:15 am 11:15 Sunny 76 24.7 58 14.3 52 52 SSE 13 20 29.97 1015 10 16 N/A
11:35 am 11:35 Sunny 78 25.6 58 14.4 50 50 S 13 20 29.96 1015 10 16 N/A
11:55 am 11:55 Sunny 79 26 58 14.4 49 49 SSE 14 22 29.95 1014 10 16 N/A
12:15 pm 12:15 Sunny 80 26.6 59 14.8 48 48 SSE 14 22 29.95 1014 10 16 N/A
12:35 pm 12:35 Sunny 80 26.6 58 14.7 48 48 S 14 22 29.95 1014 10 16 N/A
12:55 pm 12:55 Sunny 81 27.4 59 15.2 47 47 S 10 17 29.93 1014 10 16 N/A
1:15 pm 13:15 Sunny 81 27.4 59 15 47 47 S 13 20 29.92 1013 10 16 N/A
1:35 pm 13:35 Sunny 83 28.3 61 16 47 47 S 12 19 29.91 1013 10 16 N/A
1:55 pm 13:55 Sunny 83 28.4 60 15.7 46 46 S 10 17 29.91 1013 10 16 N/A
2:15 pm 14:15 Sunny 84 28.8 60 15.4 44 44 S 13 20 29.90 1012 10 16 N/A
2:35 pm 14:35 Sunny 84 29.1 60 15.6 44 44 S 12 19 29.90 1012 10 16 N/A
2:55 pm 14:55 Sunny 84 29.1 60 15.6 44 44 SSE 13 20 29.90 1012 10 16 N/A
3:15 pm 15:15 Sunny 85 29.5 60 15.5 43 43 SSE 13 20 29.88 1012 10 16 N/A
3:35 pm 15:35 Sunny 86 30.1 60 15.7 42 42 SE 12 19 29.88 1012 10 16 N/A
3:55 pm 15:55 Sunny 86 30 60 15.7 42 42 SSE 14 22 29.87 1011 10 16 N/A
4:15 pm 16:15 Sunny 86 29.9 60 15.4 41 41 SSE 13 20 29.87 1012 10 16 N/A
4:35 pm 16:35 Sunny 86 30.2 60 15.4 41 41 SSE 12 19 29.87 1011 10 16 N/A
4:55 pm 16:55 Sunny 86 30.2 60 15.8 42 42 SE 13 20 29.86 1011 10 16 N/A
5:15 pm 17:15 Sunny 86 30 59 15.1 40 40 SSE 15 24 29.86 1011 10 16 N/A
5:35 pm 17:35 Sunny 86 29.9 60 15.5 42 42 SE 14 22 29.85 1011 10 16 N/A
5:55 pm 17:55 Sunny 85 29.6 60 15.6 43 43 SE 13 20 29.85 1011 7 11 N/A
6:15 pm 18:15 Sunny 85 29.5 60 15.4 42 42 SE 13 20 29.85 1011 10 16 N/A
6:35 pm 18:35 Sunny 84 29.1 60 15.3 43 43 SE 13 20 29.86 1011 10 16 N/A
6:55 pm 18:55 Sunny 83 28.4 62 16.7 49 49 ESE 13 20 29.86 1011 10 16 N/A
7:15 pm 19:15 Sunny 82 27.7 62 16.5 51 51 ESE 14 22 29.87 1011 10 16 N/A
7:35 pm 19:35 Sunny 81 27 63 17.1 55 55 ESE 15 24 29.88 1012 10 16 N/A
7:55 pm 19:55 Sunny 79 26.2 62 16.5 55 55 ESE 13 20 29.89 1012 10 16 N/A
8:15 pm 20:15 Sunny 78 25.6 62 16.4 57 57 ESE 12 19 29.89 1012 10 16 N/A
8:35 pm 20:35 Sunny 77 24.8 62 16.4 60 60 SE 14 22 29.90 1013 10 16 N/A
8:55 pm 20:55 Clear 75 24 61 16.1 61 61 ESE 12 19 29.92 1013 10 16 N/A
9:15 pm 21:15 Clear 74 23.2 62 16.5 66 66 ESE 8 13 29.92 1013 10 16 N/A
9:35 pm 21:35 Clear 73 22.7 62 16.7 69 69 ESE 10 17 29.94 1014 10 16 N/A
9:55 pm 21:55 Partly Cloudy 72 22 62 16.9 73 73 SE 12 19 29.95 1014 10 16 N/A
10:15 pm 22:15 Mostly Cloudy 71 21.8 63 17 74 74 SE 10 17 29.96 1014 10 16 N/A
10:35 pm 22:35 Mostly Cloudy 70 21 63 17 78 78 SE 9 15 29.96 1015 10 16 N/A
10:55 pm 22:55 Partly Cloudy 69 20.7 62 16.8 78 78 SE 8 13 29.97 1015 10 16 N/A
11:15 pm 23:15 Clear 68 20 62 16.7 81 81 SE 9 15 29.96 1015 10 16 N/A
11:35 pm 23:35 Clear 67 19.7 62 16.7 83 83 SE 10 17 29.97 1015 10 16 N/A
11:55 pm 23:55 Partly Cloudy 67 19.5 62 16.7 84 84 SE 8 13 29.98 1015 10 16 N/A

Powered by AerisWeather